Year,Month,Day,Hour,Minute,Value (Times are PST for windspeed in km/hr)
2007,06,11,00,00,0.30
2007,06,11,00,01,1.90
2007,06,11,00,02,2.60
2007,06,11,00,03,1.80
2007,06,11,00,04,4.10
2007,06,11,00,05,1.90
2007,06,11,00,06,3.80
2007,06,11,00,07,2.00
2007,06,11,00,08,1.40
2007,06,11,00,09,2.90
2007,06,11,00,10,4.00
2007,06,11,00,11,4.00
2007,06,11,00,12,2.50
2007,06,11,00,13,2.00
2007,06,11,00,14,4.60
2007,06,11,00,15,1.40
2007,06,11,00,16,0.80
2007,06,11,00,17,2.10
2007,06,11,00,18,1.60
2007,06,11,00,19,1.40
2007,06,11,00,20,2.60
2007,06,11,00,21,3.40
2007,06,11,00,22,3.40
2007,06,11,00,23,2.80
2007,06,11,00,24,3.30
2007,06,11,00,25,5.30
2007,06,11,00,26,3.20
2007,06,11,00,27,3.30
2007,06,11,00,28,5.30
2007,06,11,00,29,6.50
2007,06,11,00,30,6.60
2007,06,11,00,31,2.90
2007,06,11,00,32,5.40
2007,06,11,00,33,3.50
2007,06,11,00,34,3.10
2007,06,11,00,35,3.60
2007,06,11,00,36,4.20
2007,06,11,00,37,3.90
2007,06,11,00,38,4.20
2007,06,11,00,39,3.30
2007,06,11,00,40,3.40
2007,06,11,00,41,8.30
2007,06,11,00,42,7.20
2007,06,11,00,43,6.20
2007,06,11,00,44,2.70
2007,06,11,00,45,2.70
2007,06,11,00,46,3.70
2007,06,11,00,47,5.70
2007,06,11,00,48,4.30
2007,06,11,00,49,4.30
2007,06,11,00,50,5.50
2007,06,11,00,51,3.00
2007,06,11,00,52,4.00
2007,06,11,00,53,4.30
2007,06,11,00,54,0.80
2007,06,11,00,55,5.40
2007,06,11,00,56,4.30
2007,06,11,00,57,5.90
2007,06,11,00,58,5.70
2007,06,11,00,59,2.50
2007,06,11,01,00,2.90
2007,06,11,01,01,2.10
2007,06,11,01,02,4.60
2007,06,11,01,03,3.70
2007,06,11,01,04,2.20
2007,06,11,01,05,0.90
2007,06,11,01,06,3.80
2007,06,11,01,07,1.40
2007,06,11,01,08,1.60
2007,06,11,01,09,1.10
2007,06,11,01,10,2.40
2007,06,11,01,11,0.90
2007,06,11,01,12,3.60
2007,06,11,01,13,4.30
2007,06,11,01,14,1.40
2007,06,11,01,15,3.60
2007,06,11,01,16,2.10
2007,06,11,01,17,0.60
2007,06,11,01,18,1.80
2007,06,11,01,19,3.60
2007,06,11,01,20,2.80
2007,06,11,01,21,2.40
2007,06,11,01,22,3.60
2007,06,11,01,23,3.10
2007,06,11,01,24,5.80
2007,06,11,01,25,2.50
2007,06,11,01,26,3.30
2007,06,11,01,27,2.30
2007,06,11,01,28,2.70
2007,06,11,01,29,1.00
2007,06,11,01,30,0.80
2007,06,11,01,31,3.80
2007,06,11,01,32,3.40
2007,06,11,01,33,3.60
2007,06,11,01,34,4.10
2007,06,11,01,35,2.10
2007,06,11,01,36,0.30
2007,06,11,01,37,2.70
2007,06,11,01,38,5.30
2007,06,11,01,39,5.50
2007,06,11,01,40,3.00
2007,06,11,01,41,2.60
2007,06,11,01,42,0.80
2007,06,11,01,43,1.80
2007,06,11,01,44,2.90
2007,06,11,01,45,3.30
2007,06,11,01,46,3.60
2007,06,11,01,47,3.00
2007,06,11,01,48,4.30
2007,06,11,01,49,3.50
2007,06,11,01,50,3.00
2007,06,11,01,51,2.20
2007,06,11,01,52,3.50
2007,06,11,01,53,4.00
2007,06,11,01,54,4.20
2007,06,11,01,55,3.80
2007,06,11,01,56,2.60
2007,06,11,01,57,3.40
2007,06,11,01,58,0.60
2007,06,11,01,59,0.00
2007,06,11,02,00,1.10
2007,06,11,02,01,1.90
2007,06,11,02,02,2.30
2007,06,11,02,03,1.90
2007,06,11,02,04,1.50
2007,06,11,02,05,1.40
2007,06,11,02,06,1.50
2007,06,11,02,07,0.60
2007,06,11,02,08,1.80
2007,06,11,02,09,2.30
2007,06,11,02,10,2.50
2007,06,11,02,11,2.50
2007,06,11,02,12,1.40
2007,06,11,02,13,1.00
2007,06,11,02,14,1.50
2007,06,11,02,15,2.10
2007,06,11,02,16,0.30
2007,06,11,02,17,0.70
2007,06,11,02,18,0.70
2007,06,11,02,19,0.00
2007,06,11,02,20,1.00
2007,06,11,02,21,0.60
2007,06,11,02,22,0.10
2007,06,11,02,23,0.10
2007,06,11,02,24,0.00
2007,06,11,02,25,0.10
2007,06,11,02,26,0.90
2007,06,11,02,27,0.30
2007,06,11,02,28,0.50
2007,06,11,02,29,1.30
2007,06,11,02,30,3.90
2007,06,11,02,31,4.50
2007,06,11,02,32,3.30
2007,06,11,02,33,2.10
2007,06,11,02,34,0.10
2007,06,11,02,35,1.00
2007,06,11,02,36,2.20
2007,06,11,02,37,1.90
2007,06,11,02,38,1.30
2007,06,11,02,39,3.10
2007,06,11,02,40,0.30
2007,06,11,02,41,0.00
2007,06,11,02,42,0.00
2007,06,11,02,43,0.00
2007,06,11,02,44,0.70
2007,06,11,02,45,1.90
2007,06,11,02,46,2.10
2007,06,11,02,47,0.40
2007,06,11,02,48,0.00
2007,06,11,02,49,0.00
2007,06,11,02,50,0.00
2007,06,11,02,51,0.00
2007,06,11,02,52,0.20
2007,06,11,02,53,0.70
2007,06,11,02,54,2.10
2007,06,11,02,55,0.30
2007,06,11,02,56,0.20
2007,06,11,02,57,0.00
2007,06,11,02,58,0.00
2007,06,11,02,59,0.40
2007,06,11,03,00,0.10
2007,06,11,03,01,0.20
2007,06,11,03,02,0.90
2007,06,11,03,03,0.90
2007,06,11,03,04,0.10
2007,06,11,03,05,0.00
2007,06,11,03,06,0.00
2007,06,11,03,07,0.10
2007,06,11,03,08,0.00
2007,06,11,03,09,0.00
2007,06,11,03,10,0.10
2007,06,11,03,11,1.50
2007,06,11,03,12,0.40
2007,06,11,03,13,1.40
2007,06,11,03,14,1.70
2007,06,11,03,15,1.60
2007,06,11,03,16,2.00
2007,06,11,03,17,2.30
2007,06,11,03,18,2.70
2007,06,11,03,19,3.90
2007,06,11,03,20,0.80
2007,06,11,03,21,0.40
2007,06,11,03,22,2.00
2007,06,11,03,23,0.00
2007,06,11,03,24,0.40
2007,06,11,03,25,3.10
2007,06,11,03,26,3.80
2007,06,11,03,27,0.80
2007,06,11,03,28,2.70
2007,06,11,03,29,1.30
2007,06,11,03,30,0.10
2007,06,11,03,31,0.00
2007,06,11,03,32,0.10
2007,06,11,03,33,0.00
2007,06,11,03,34,0.30
2007,06,11,03,35,0.80
2007,06,11,03,36,0.10
2007,06,11,03,37,0.10
2007,06,11,03,38,0.40
2007,06,11,03,39,0.20
2007,06,11,03,40,0.50
2007,06,11,03,41,1.20
2007,06,11,03,42,0.80
2007,06,11,03,43,1.50
2007,06,11,03,44,1.10
2007,06,11,03,45,0.60
2007,06,11,03,46,0.10
2007,06,11,03,47,1.20
2007,06,11,03,48,2.20
2007,06,11,03,49,0.10
2007,06,11,03,50,1.10
2007,06,11,03,51,1.20
2007,06,11,03,52,0.60
2007,06,11,03,53,0.50
2007,06,11,03,54,0.30
2007,06,11,03,55,0.20
2007,06,11,03,56,0.20
2007,06,11,03,57,0.20
2007,06,11,03,58,0.60
2007,06,11,03,59,1.30
2007,06,11,04,00,1.20
2007,06,11,04,01,1.40
2007,06,11,04,02,2.00
2007,06,11,04,03,0.20
2007,06,11,04,04,2.10
2007,06,11,04,05,3.40
2007,06,11,04,06,1.80
2007,06,11,04,07,0.20
2007,06,11,04,08,0.00
2007,06,11,04,09,0.30
2007,06,11,04,10,2.00
2007,06,11,04,11,0.10
2007,06,11,04,12,2.80
2007,06,11,04,13,0.90
2007,06,11,04,14,1.10
2007,06,11,04,15,0.20
2007,06,11,04,16,0.20
2007,06,11,04,17,1.10
2007,06,11,04,18,2.80
2007,06,11,04,19,1.90
2007,06,11,04,20,2.10
2007,06,11,04,21,1.80
2007,06,11,04,22,0.50
2007,06,11,04,23,1.50
2007,06,11,04,24,1.10
2007,06,11,04,25,4.00
2007,06,11,04,26,1.40
2007,06,11,04,27,1.00
2007,06,11,04,28,2.20
2007,06,11,04,29,3.90
2007,06,11,04,30,0.30
2007,06,11,04,31,0.50
2007,06,11,04,32,0.80
2007,06,11,04,33,3.00
2007,06,11,04,34,4.80
2007,06,11,04,35,5.00
2007,06,11,04,36,2.80
2007,06,11,04,37,0.20
2007,06,11,04,38,1.80
2007,06,11,04,39,3.50
2007,06,11,04,40,3.00
2007,06,11,04,41,2.30
2007,06,11,04,42,1.30
2007,06,11,04,43,0.70
2007,06,11,04,44,0.20
2007,06,11,04,45,0.60
2007,06,11,04,46,0.90
2007,06,11,04,47,0.00
2007,06,11,04,48,0.30
2007,06,11,04,49,0.50
2007,06,11,04,50,0.00
2007,06,11,04,51,0.00
2007,06,11,04,52,0.20
2007,06,11,04,53,0.30
2007,06,11,04,54,0.00
2007,06,11,04,55,0.00
2007,06,11,04,56,0.00
2007,06,11,04,57,0.30
2007,06,11,04,58,0.70
2007,06,11,04,59,0.70
2007,06,11,05,00,0.00
2007,06,11,05,01,0.60
2007,06,11,05,02,2.80
2007,06,11,05,03,0.20
2007,06,11,05,04,1.90
2007,06,11,05,05,0.30
2007,06,11,05,06,0.00
2007,06,11,05,07,0.00
2007,06,11,05,08,0.00
2007,06,11,05,09,0.00
2007,06,11,05,10,1.10
2007,06,11,05,11,0.20
2007,06,11,05,12,0.00
2007,06,11,05,13,0.00
2007,06,11,05,14,0.00
2007,06,11,05,15,0.00
2007,06,11,05,16,0.00
2007,06,11,05,17,0.00
2007,06,11,05,18,0.00
2007,06,11,05,19,0.00
2007,06,11,05,20,0.00
2007,06,11,05,21,0.00
2007,06,11,05,22,0.00
2007,06,11,05,23,0.00
2007,06,11,05,24,0.00
2007,06,11,05,25,1.00
2007,06,11,05,26,0.60
2007,06,11,05,27,0.50
2007,06,11,05,28,1.70
2007,06,11,05,29,1.90
2007,06,11,05,30,3.50
2007,06,11,05,31,3.30
2007,06,11,05,32,2.90
2007,06,11,05,33,1.20
2007,06,11,05,34,2.70
2007,06,11,05,35,1.40
2007,06,11,05,36,2.40
2007,06,11,05,37,1.40
2007,06,11,05,38,1.80
2007,06,11,05,39,1.90
2007,06,11,05,40,1.50
2007,06,11,05,41,2.50
2007,06,11,05,42,4.60
2007,06,11,05,43,4.30
2007,06,11,05,44,1.50
2007,06,11,05,45,0.70
2007,06,11,05,46,0.10
2007,06,11,05,47,0.30
2007,06,11,05,48,2.70
2007,06,11,05,49,2.50
2007,06,11,05,50,1.30
2007,06,11,05,51,0.10
2007,06,11,05,52,1.00
2007,06,11,05,53,1.10
2007,06,11,05,54,2.90
2007,06,11,05,55,2.90
2007,06,11,05,56,1.10
2007,06,11,05,57,3.60
2007,06,11,05,58,3.20
2007,06,11,05,59,2.00
2007,06,11,06,00,2.90
2007,06,11,06,01,3.40
2007,06,11,06,02,3.60
2007,06,11,06,03,1.90
2007,06,11,06,04,1.70
2007,06,11,06,05,2.20
2007,06,11,06,06,1.30
2007,06,11,06,07,1.20
2007,06,11,06,08,1.70
2007,06,11,06,09,2.90
2007,06,11,06,10,2.00
2007,06,11,06,11,0.90
2007,06,11,06,12,1.00
2007,06,11,06,13,0.10
2007,06,11,06,14,0.00
2007,06,11,06,15,0.20
2007,06,11,06,16,0.10
2007,06,11,06,17,1.00
2007,06,11,06,18,0.60
2007,06,11,06,19,0.00
2007,06,11,06,20,1.00
2007,06,11,06,21,1.90
2007,06,11,06,22,1.50
2007,06,11,06,23,1.90
2007,06,11,06,24,1.80
2007,06,11,06,25,1.90
2007,06,11,06,26,1.10
2007,06,11,06,27,0.20
2007,06,11,06,28,1.20
2007,06,11,06,29,0.30
2007,06,11,06,30,0.40
2007,06,11,06,31,0.00
2007,06,11,06,32,0.00
2007,06,11,06,33,0.30
2007,06,11,06,34,0.10
2007,06,11,06,35,0.00
2007,06,11,06,36,1.00
2007,06,11,06,37,0.90
2007,06,11,06,38,2.60
2007,06,11,06,39,1.00
2007,06,11,06,40,1.80
2007,06,11,06,41,1.50
2007,06,11,06,42,0.40
2007,06,11,06,43,1.30
2007,06,11,06,44,0.00
2007,06,11,06,45,0.70
2007,06,11,06,46,0.60
2007,06,11,06,47,1.40
2007,06,11,06,48,3.50
2007,06,11,06,49,0.30
2007,06,11,06,50,1.40
2007,06,11,06,51,2.50
2007,06,11,06,52,2.40
2007,06,11,06,53,3.20
2007,06,11,06,54,2.90
2007,06,11,06,55,3.90
2007,06,11,06,56,3.10
2007,06,11,06,57,1.50
2007,06,11,06,58,1.90
2007,06,11,06,59,1.80
2007,06,11,07,00,0.10
2007,06,11,07,01,2.10
2007,06,11,07,02,1.90
2007,06,11,07,03,2.60
2007,06,11,07,04,1.40
2007,06,11,07,05,2.20
2007,06,11,07,06,1.70
2007,06,11,07,07,0.10
2007,06,11,07,08,0.20
2007,06,11,07,09,0.30
2007,06,11,07,10,0.30
2007,06,11,07,11,1.10
2007,06,11,07,12,2.80
2007,06,11,07,13,2.20
2007,06,11,07,14,0.90
2007,06,11,07,15,1.20
2007,06,11,07,16,1.70
2007,06,11,07,17,0.90
2007,06,11,07,18,1.20
2007,06,11,07,19,1.20
2007,06,11,07,20,1.90
2007,06,11,07,21,1.10
2007,06,11,07,22,3.10
2007,06,11,07,23,1.50
2007,06,11,07,24,0.70
2007,06,11,07,25,0.60
2007,06,11,07,26,3.10
2007,06,11,07,27,1.00
2007,06,11,07,28,1.00
2007,06,11,07,29,0.20
2007,06,11,07,30,1.90
2007,06,11,07,31,0.20
2007,06,11,07,32,0.90
2007,06,11,07,33,3.70
2007,06,11,07,34,2.60
2007,06,11,07,35,0.80
2007,06,11,07,36,1.50
2007,06,11,07,37,1.40
2007,06,11,07,38,2.20
2007,06,11,07,39,1.50
2007,06,11,07,40,1.70
2007,06,11,07,41,3.10
2007,06,11,07,42,3.00
2007,06,11,07,43,4.00
2007,06,11,07,44,2.50
2007,06,11,07,45,4.70
2007,06,11,07,46,5.20
2007,06,11,07,47,3.90
2007,06,11,07,48,4.30
2007,06,11,07,49,3.50
2007,06,11,07,50,2.80
2007,06,11,07,51,3.90
2007,06,11,07,52,2.70
2007,06,11,07,53,3.40
2007,06,11,07,54,0.60
2007,06,11,07,55,2.30
2007,06,11,07,56,3.40
2007,06,11,07,57,3.70
2007,06,11,07,58,2.60
2007,06,11,07,59,5.00
2007,06,11,08,00,2.90
2007,06,11,08,01,3.90
2007,06,11,08,02,1.40
2007,06,11,08,03,2.70
2007,06,11,08,04,2.20
2007,06,11,08,05,1.70
2007,06,11,08,06,0.40
2007,06,11,08,07,0.60
2007,06,11,08,08,1.40
2007,06,11,08,09,1.20
2007,06,11,08,10,2.80
2007,06,11,08,11,3.40
2007,06,11,08,12,3.50
2007,06,11,08,13,2.80
2007,06,11,08,14,3.30
2007,06,11,08,15,3.60
2007,06,11,08,16,4.60
2007,06,11,08,17,5.60
2007,06,11,08,18,4.70
2007,06,11,08,19,6.90
2007,06,11,08,20,6.80
2007,06,11,08,21,3.20
2007,06,11,08,22,5.40
2007,06,11,08,23,3.10
2007,06,11,08,24,4.70
2007,06,11,08,25,2.70
2007,06,11,08,26,1.30
2007,06,11,08,27,2.30
2007,06,11,08,28,0.60
2007,06,11,08,29,0.40
2007,06,11,08,30,2.50
2007,06,11,08,31,2.30
2007,06,11,08,32,3.10
2007,06,11,08,33,1.90
2007,06,11,08,34,1.60
2007,06,11,08,35,2.10
2007,06,11,08,36,3.10
2007,06,11,08,37,1.30
2007,06,11,08,38,1.00
2007,06,11,08,39,7.10
2007,06,11,08,40,8.10
2007,06,11,08,41,3.80
2007,06,11,08,42,7.30
2007,06,11,08,43,2.80
2007,06,11,08,44,5.10
2007,06,11,08,45,3.70
2007,06,11,08,46,5.40
2007,06,11,08,47,5.60
2007,06,11,08,48,2.70
2007,06,11,08,49,3.60
2007,06,11,08,50,2.00
2007,06,11,08,51,1.20
2007,06,11,08,52,0.20
2007,06,11,08,53,0.90
2007,06,11,08,54,0.40
2007,06,11,08,55,0.00
2007,06,11,08,56,0.30
2007,06,11,08,57,2.30
2007,06,11,08,58,0.40
2007,06,11,08,59,1.00
2007,06,11,09,00,2.50
2007,06,11,09,01,4.70
2007,06,11,09,02,4.90
2007,06,11,09,03,2.70
2007,06,11,09,04,3.50
2007,06,11,09,05,3.00
2007,06,11,09,06,2.10
2007,06,11,09,07,2.50
2007,06,11,09,08,4.00
2007,06,11,09,09,5.40
2007,06,11,09,10,0.50
2007,06,11,09,11,0.00
2007,06,11,09,12,0.70
2007,06,11,09,13,4.70
2007,06,11,09,14,2.40
2007,06,11,09,15,1.20
2007,06,11,09,16,1.40
2007,06,11,09,17,1.50
2007,06,11,09,18,3.50
2007,06,11,09,19,2.20
2007,06,11,09,20,3.20
2007,06,11,09,21,3.20
2007,06,11,09,22,0.90
2007,06,11,09,23,2.30
2007,06,11,09,24,1.60
2007,06,11,09,25,4.40
2007,06,11,09,26,3.10
2007,06,11,09,27,0.60
2007,06,11,09,28,2.40
2007,06,11,09,29,0.90
2007,06,11,09,30,0.90
2007,06,11,09,31,1.60
2007,06,11,09,32,5.40
2007,06,11,09,33,6.60
2007,06,11,09,34,3.20
2007,06,11,09,35,0.20
2007,06,11,09,36,0.50
2007,06,11,09,37,2.50
2007,06,11,09,38,4.30
2007,06,11,09,39,3.50
2007,06,11,09,40,2.60
2007,06,11,09,41,5.40
2007,06,11,09,42,4.10
2007,06,11,09,43,5.60
2007,06,11,09,44,3.50
2007,06,11,09,45,1.00
2007,06,11,09,46,0.20
2007,06,11,09,47,5.30
2007,06,11,09,48,4.60
2007,06,11,09,49,5.30
2007,06,11,09,50,4.20
2007,06,11,09,51,4.30
2007,06,11,09,52,1.00
2007,06,11,09,53,0.90
2007,06,11,09,54,1.60
2007,06,11,09,55,1.40
2007,06,11,09,56,0.30
2007,06,11,09,57,0.20
2007,06,11,09,58,1.20
2007,06,11,09,59,0.50
2007,06,11,10,00,2.30
2007,06,11,10,01,1.40
2007,06,11,10,02,0.30
2007,06,11,10,03,3.00
2007,06,11,10,04,1.70
2007,06,11,10,05,1.90
2007,06,11,10,06,1.00
2007,06,11,10,07,4.60
2007,06,11,10,08,2.10
2007,06,11,10,09,1.10
2007,06,11,10,10,0.20
2007,06,11,10,11,2.40
2007,06,11,10,12,0.10
2007,06,11,10,13,0.10
2007,06,11,10,14,1.40
2007,06,11,10,15,3.20
2007,06,11,10,16,1.30
2007,06,11,10,17,2.10
2007,06,11,10,18,0.10
2007,06,11,10,19,2.00
2007,06,11,10,20,2.40
2007,06,11,10,21,0.90
2007,06,11,10,22,3.30
2007,06,11,10,23,1.20
2007,06,11,10,24,0.90
2007,06,11,10,25,0.30
2007,06,11,10,26,2.40
2007,06,11,10,27,1.50
2007,06,11,10,28,0.00
2007,06,11,10,29,3.10
2007,06,11,10,30,1.60
2007,06,11,10,31,0.70
2007,06,11,10,32,0.80
2007,06,11,10,33,1.10
2007,06,11,10,34,1.10
2007,06,11,10,35,0.70
2007,06,11,10,36,1.60
2007,06,11,10,37,2.00
2007,06,11,10,38,0.20
2007,06,11,10,39,0.00
2007,06,11,10,40,0.50
2007,06,11,10,41,0.20
2007,06,11,10,42,0.30
2007,06,11,10,43,0.60
2007,06,11,10,44,0.00
2007,06,11,10,45,0.30
2007,06,11,10,46,1.40
2007,06,11,10,47,1.30
2007,06,11,10,48,0.60
2007,06,11,10,49,1.50
2007,06,11,10,50,1.40
2007,06,11,10,51,1.60
2007,06,11,10,52,4.30
2007,06,11,10,53,3.10
2007,06,11,10,54,1.60
2007,06,11,10,55,1.40
2007,06,11,10,56,5.00
2007,06,11,10,57,5.30
2007,06,11,10,58,4.10
2007,06,11,10,59,1.90
2007,06,11,11,00,1.90
2007,06,11,11,01,4.00
2007,06,11,11,02,1.70
2007,06,11,11,03,3.20
2007,06,11,11,04,1.40
2007,06,11,11,05,2.50
2007,06,11,11,06,3.50
2007,06,11,11,07,1.40
2007,06,11,11,08,4.00
2007,06,11,11,09,1.90
2007,06,11,11,10,6.40
2007,06,11,11,11,3.00
2007,06,11,11,12,2.30
2007,06,11,11,13,1.80
2007,06,11,11,14,1.90
2007,06,11,11,15,1.40
2007,06,11,11,16,2.80
2007,06,11,11,17,4.00
2007,06,11,11,18,2.50
2007,06,11,11,19,4.70
2007,06,11,11,20,4.30
2007,06,11,11,21,3.00
2007,06,11,11,22,8.10
2007,06,11,11,23,7.60
2007,06,11,11,24,5.90
2007,06,11,11,25,6.00
2007,06,11,11,26,5.10
2007,06,11,11,27,6.00
2007,06,11,11,28,5.50
2007,06,11,11,29,6.00
2007,06,11,11,30,3.50
2007,06,11,11,31,4.20
2007,06,11,11,32,3.60
2007,06,11,11,33,6.80
2007,06,11,11,34,5.30
2007,06,11,11,35,6.30
2007,06,11,11,36,11.80
2007,06,11,11,37,7.30
2007,06,11,11,38,4.40
2007,06,11,11,39,8.70
2007,06,11,11,40,6.40
2007,06,11,11,41,10.00
2007,06,11,11,42,10.50
2007,06,11,11,43,6.70
2007,06,11,11,44,6.30
2007,06,11,11,45,6.30
2007,06,11,11,46,5.30
2007,06,11,11,47,2.50
2007,06,11,11,48,2.20
2007,06,11,11,49,4.80
2007,06,11,11,50,3.70
2007,06,11,11,51,10.90
2007,06,11,11,52,9.70
2007,06,11,11,53,4.60
2007,06,11,11,54,4.90
2007,06,11,11,55,3.10
2007,06,11,11,56,4.20
2007,06,11,11,57,3.10
2007,06,11,11,58,1.90
2007,06,11,11,59,0.40
2007,06,11,12,00,3.80
2007,06,11,12,01,10.90
2007,06,11,12,02,5.20
2007,06,11,12,03,4.10
2007,06,11,12,04,4.10
2007,06,11,12,05,1.10
2007,06,11,12,06,4.60
2007,06,11,12,07,4.40
2007,06,11,12,08,0.90
2007,06,11,12,09,1.10
2007,06,11,12,10,2.80
2007,06,11,12,11,2.80
2007,06,11,12,12,6.40
2007,06,11,12,13,3.10
2007,06,11,12,14,4.20
2007,06,11,12,15,4.00
2007,06,11,12,16,1.80
2007,06,11,12,17,0.80
2007,06,11,12,18,1.90
2007,06,11,12,19,1.90
2007,06,11,12,20,4.70
2007,06,11,12,21,5.20
2007,06,11,12,22,2.30
2007,06,11,12,23,2.20
2007,06,11,12,24,4.70
2007,06,11,12,25,4.20
2007,06,11,12,26,3.60
2007,06,11,12,27,4.10
2007,06,11,12,28,1.60
2007,06,11,12,29,7.60
2007,06,11,12,30,4.20
2007,06,11,12,31,4.00
2007,06,11,12,32,8.00
2007,06,11,12,33,4.60
2007,06,11,12,34,3.10
2007,06,11,12,35,1.20
2007,06,11,12,36,3.80
2007,06,11,12,37,3.00
2007,06,11,12,38,6.50
2007,06,11,12,39,9.50
2007,06,11,12,40,1.80
2007,06,11,12,41,0.30
2007,06,11,12,42,3.70
2007,06,11,12,43,3.70
2007,06,11,12,44,4.80
2007,06,11,12,45,6.40
2007,06,11,12,46,6.60
2007,06,11,12,47,8.60
2007,06,11,12,48,5.50
2007,06,11,12,49,2.10
2007,06,11,12,50,9.90
2007,06,11,12,51,3.90
2007,06,11,12,52,3.00
2007,06,11,12,53,5.30
2007,06,11,12,54,4.90
2007,06,11,12,55,4.80
2007,06,11,12,56,1.20
2007,06,11,12,57,1.20
2007,06,11,12,58,6.10
2007,06,11,12,59,5.70
2007,06,11,13,00,2.30
2007,06,11,13,01,1.80
2007,06,11,13,02,2.70
2007,06,11,13,03,2.00
2007,06,11,13,04,8.80
2007,06,11,13,05,5.30
2007,06,11,13,06,3.30
2007,06,11,13,07,0.70
2007,06,11,13,08,2.70
2007,06,11,13,09,2.00
2007,06,11,13,10,6.70
2007,06,11,13,11,6.20
2007,06,11,13,12,9.20
2007,06,11,13,13,7.30
2007,06,11,13,14,6.90
2007,06,11,13,15,8.70
2007,06,11,13,16,6.10
2007,06,11,13,17,3.30
2007,06,11,13,18,10.80
2007,06,11,13,19,5.00
2007,06,11,13,20,3.90
2007,06,11,13,21,1.40
2007,06,11,13,22,2.40
2007,06,11,13,23,2.00
2007,06,11,13,24,2.30
2007,06,11,13,25,3.50
2007,06,11,13,26,4.80
2007,06,11,13,27,7.60
2007,06,11,13,28,4.90
2007,06,11,13,29,4.70
2007,06,11,13,30,2.00
2007,06,11,13,31,5.20
2007,06,11,13,32,4.00
2007,06,11,13,33,5.50
2007,06,11,13,34,8.90
2007,06,11,13,35,11.10
2007,06,11,13,36,7.40
2007,06,11,13,37,1.40
2007,06,11,13,38,5.80
2007,06,11,13,39,1.60
2007,06,11,13,40,2.10
2007,06,11,13,41,7.00
2007,06,11,13,42,9.40
2007,06,11,13,43,10.10
2007,06,11,13,44,9.90
2007,06,11,13,45,12.50
2007,06,11,13,46,11.10
2007,06,11,13,47,9.70
2007,06,11,13,48,10.60
2007,06,11,13,49,4.70
2007,06,11,13,50,8.80
2007,06,11,13,51,7.10
2007,06,11,13,52,9.70
2007,06,11,13,53,9.10
2007,06,11,13,54,8.50
2007,06,11,13,55,8.40
2007,06,11,13,56,10.30
2007,06,11,13,57,7.60
2007,06,11,13,58,4.60
2007,06,11,13,59,7.90
2007,06,11,14,00,6.80
2007,06,11,14,01,6.40
2007,06,11,14,02,5.10
2007,06,11,14,03,12.30
2007,06,11,14,04,8.90
2007,06,11,14,05,7.90
2007,06,11,14,06,7.50
2007,06,11,14,07,5.90
2007,06,11,14,08,8.60
2007,06,11,14,09,5.10
2007,06,11,14,10,10.30
2007,06,11,14,11,7.90
2007,06,11,14,12,3.40
2007,06,11,14,13,3.90
2007,06,11,14,14,3.50
2007,06,11,14,15,10.10
2007,06,11,14,16,7.50
2007,06,11,14,17,2.70
2007,06,11,14,18,4.20
2007,06,11,14,19,3.50
2007,06,11,14,20,3.50
2007,06,11,14,21,9.20
2007,06,11,14,22,9.20
2007,06,11,14,23,2.20
2007,06,11,14,24,4.10
2007,06,11,14,25,6.80
2007,06,11,14,26,5.70
2007,06,11,14,27,5.10
2007,06,11,14,28,10.90
2007,06,11,14,29,10.10
2007,06,11,14,30,11.30
2007,06,11,14,31,13.30
2007,06,11,14,32,9.10
2007,06,11,14,33,10.40
2007,06,11,14,34,8.90
2007,06,11,14,35,9.80
2007,06,11,14,36,13.60
2007,06,11,14,37,6.60
2007,06,11,14,38,5.50
2007,06,11,14,39,6.30
2007,06,11,14,40,4.90
2007,06,11,14,41,0.10
2007,06,11,14,42,3.90
2007,06,11,14,43,4.70
2007,06,11,14,44,5.20
2007,06,11,14,45,3.50
2007,06,11,14,46,0.80
2007,06,11,14,47,2.40
2007,06,11,14,48,2.20
2007,06,11,14,49,3.90
2007,06,11,14,50,5.50
2007,06,11,14,51,3.40
2007,06,11,14,52,6.40
2007,06,11,14,53,3.50
2007,06,11,14,54,7.20
2007,06,11,14,55,4.60
2007,06,11,14,56,5.00
2007,06,11,14,57,5.30
2007,06,11,14,58,5.70
2007,06,11,14,59,1.20
2007,06,11,15,00,3.90
2007,06,11,15,01,4.10
2007,06,11,15,02,7.00
2007,06,11,15,03,3.90
2007,06,11,15,04,5.10
2007,06,11,15,05,7.20
2007,06,11,15,06,12.50
2007,06,11,15,07,10.10
2007,06,11,15,08,3.10
2007,06,11,15,09,4.30
2007,06,11,15,10,1.80
2007,06,11,15,11,3.80
2007,06,11,15,12,9.20
2007,06,11,15,13,12.20
2007,06,11,15,14,7.70
2007,06,11,15,15,6.80
2007,06,11,15,16,11.40
2007,06,11,15,17,10.40
2007,06,11,15,18,7.40
2007,06,11,15,19,11.90
2007,06,11,15,20,8.40
2007,06,11,15,21,12.40
2007,06,11,15,22,9.60
2007,06,11,15,23,11.90
2007,06,11,15,24,12.10
2007,06,11,15,25,9.50
2007,06,11,15,26,10.70
2007,06,11,15,27,8.50
2007,06,11,15,28,13.40
2007,06,11,15,29,10.10
2007,06,11,15,30,4.90
2007,06,11,15,31,6.40
2007,06,11,15,32,5.10
2007,06,11,15,33,7.10
2007,06,11,15,34,3.00
2007,06,11,15,35,0.70
2007,06,11,15,36,8.90
2007,06,11,15,37,2.60
2007,06,11,15,38,6.60
2007,06,11,15,39,5.20
2007,06,11,15,40,8.40
2007,06,11,15,41,7.50
2007,06,11,15,42,6.70
2007,06,11,15,43,7.80
2007,06,11,15,44,7.80
2007,06,11,15,45,10.50
2007,06,11,15,46,7.40
2007,06,11,15,47,5.40
2007,06,11,15,48,4.50
2007,06,11,15,49,6.30
2007,06,11,15,50,3.10
2007,06,11,15,51,1.00
2007,06,11,15,52,4.00
2007,06,11,15,53,8.00
2007,06,11,15,54,5.30
2007,06,11,15,55,4.50
2007,06,11,15,56,7.30
2007,06,11,15,57,4.00
2007,06,11,15,58,4.20
2007,06,11,15,59,2.10
2007,06,11,16,00,1.90
2007,06,11,16,01,8.00
2007,06,11,16,02,7.50
2007,06,11,16,03,7.10
2007,06,11,16,04,9.00
2007,06,11,16,05,2.30
2007,06,11,16,06,6.40
2007,06,11,16,07,7.30
2007,06,11,16,08,5.10
2007,06,11,16,09,1.70
2007,06,11,16,10,3.90
2007,06,11,16,11,7.70
2007,06,11,16,12,4.80
2007,06,11,16,13,3.10
2007,06,11,16,14,3.30
2007,06,11,16,15,5.80
2007,06,11,16,16,5.20
2007,06,11,16,17,8.30
2007,06,11,16,18,9.20
2007,06,11,16,19,12.60
2007,06,11,16,20,6.20
2007,06,11,16,21,3.90
2007,06,11,16,22,4.30
2007,06,11,16,23,2.50
2007,06,11,16,24,7.70
2007,06,11,16,25,5.80
2007,06,11,16,26,1.90
2007,06,11,16,27,1.90
2007,06,11,16,28,3.60
2007,06,11,16,29,4.10
2007,06,11,16,30,6.20
2007,06,11,16,31,6.30
2007,06,11,16,32,4.70
2007,06,11,16,33,1.90
2007,06,11,16,34,2.70
2007,06,11,16,35,7.40
2007,06,11,16,36,4.00
2007,06,11,16,37,7.90
2007,06,11,16,38,9.30
2007,06,11,16,39,6.90
2007,06,11,16,40,8.00
2007,06,11,16,41,4.80
2007,06,11,16,42,4.50
2007,06,11,16,43,4.90
2007,06,11,16,44,4.00
2007,06,11,16,45,2.40
2007,06,11,16,46,4.20
2007,06,11,16,47,7.50
2007,06,11,16,48,9.60
2007,06,11,16,49,10.10
2007,06,11,16,50,12.90
2007,06,11,16,51,10.90
2007,06,11,16,52,8.40
2007,06,11,16,53,11.70
2007,06,11,16,54,10.50
2007,06,11,16,55,10.10
2007,06,11,16,56,9.90
2007,06,11,16,57,8.50
2007,06,11,16,58,7.20
2007,06,11,16,59,8.30
2007,06,11,17,00,7.70
2007,06,11,17,01,9.70
2007,06,11,17,02,11.20
2007,06,11,17,03,14.60
2007,06,11,17,04,13.00
2007,06,11,17,05,6.20
2007,06,11,17,06,11.30
2007,06,11,17,07,17.30
2007,06,11,17,08,15.40
2007,06,11,17,09,14.30
2007,06,11,17,10,10.80
2007,06,11,17,11,11.70
2007,06,11,17,12,15.90
2007,06,11,17,13,7.60
2007,06,11,17,14,5.50
2007,06,11,17,15,7.60
2007,06,11,17,16,5.60
2007,06,11,17,17,4.40
2007,06,11,17,18,8.60
2007,06,11,17,19,8.90
2007,06,11,17,20,12.60
2007,06,11,17,21,7.10
2007,06,11,17,22,7.90
2007,06,11,17,23,7.40
2007,06,11,17,24,12.80
2007,06,11,17,25,6.50
2007,06,11,17,26,8.30
2007,06,11,17,27,7.20
2007,06,11,17,28,6.60
2007,06,11,17,29,8.00
2007,06,11,17,30,9.50
2007,06,11,17,31,6.30
2007,06,11,17,32,8.10
2007,06,11,17,33,7.50
2007,06,11,17,34,6.10
2007,06,11,17,35,3.00
2007,06,11,17,36,5.10
2007,06,11,17,37,5.80
2007,06,11,17,38,6.40
2007,06,11,17,39,6.40
2007,06,11,17,40,7.10
2007,06,11,17,41,7.20
2007,06,11,17,42,4.40
2007,06,11,17,43,5.80
2007,06,11,17,44,5.30
2007,06,11,17,45,5.00
2007,06,11,17,46,2.00
2007,06,11,17,47,4.20
2007,06,11,17,48,3.30
2007,06,11,17,49,5.10
2007,06,11,17,50,9.70
2007,06,11,17,51,6.70
2007,06,11,17,52,4.20
2007,06,11,17,53,3.90
2007,06,11,17,54,4.50
2007,06,11,17,55,2.10
2007,06,11,17,56,3.80
2007,06,11,17,57,2.80
2007,06,11,17,58,3.50
2007,06,11,17,59,4.80
2007,06,11,18,00,5.20
2007,06,11,18,01,6.80
2007,06,11,18,02,4.40
2007,06,11,18,03,2.50
2007,06,11,18,04,0.50